Year,Month,Day,Hour,Minute,Value (Times are PST for temperature in C)
2018,04,24,00,00,8.90
2018,04,24,00,01,8.90
2018,04,24,00,02,8.90
2018,04,24,00,03,8.90
2018,04,24,00,04,8.90
2018,04,24,00,05,8.90
2018,04,24,00,06,8.80
2018,04,24,00,07,8.80
2018,04,24,00,08,8.80
2018,04,24,00,09,8.80
2018,04,24,00,10,8.70
2018,04,24,00,11,8.70
2018,04,24,00,12,8.70
2018,04,24,00,13,8.70
2018,04,24,00,14,8.70
2018,04,24,00,15,8.60
2018,04,24,00,16,8.60
2018,04,24,00,17,8.60
2018,04,24,00,18,8.60
2018,04,24,00,19,8.60
2018,04,24,00,20,8.60
2018,04,24,00,21,8.60
2018,04,24,00,22,8.60
2018,04,24,00,23,8.60
2018,04,24,00,24,8.60
2018,04,24,00,25,8.60
2018,04,24,00,26,8.60
2018,04,24,00,27,8.60
2018,04,24,00,28,8.60
2018,04,24,00,29,8.60
2018,04,24,00,30,8.60
2018,04,24,00,31,8.60
2018,04,24,00,32,8.60
2018,04,24,00,33,8.60
2018,04,24,00,34,8.60
2018,04,24,00,35,8.50
2018,04,24,00,36,8.50
2018,04,24,00,37,8.50
2018,04,24,00,38,8.50
2018,04,24,00,39,8.50
2018,04,24,00,40,8.50
2018,04,24,00,41,8.50
2018,04,24,00,42,8.50
2018,04,24,00,43,8.50
2018,04,24,00,44,8.50
2018,04,24,00,45,8.50
2018,04,24,00,46,8.50
2018,04,24,00,47,8.60
2018,04,24,00,48,8.60
2018,04,24,00,49,8.60
2018,04,24,00,50,8.60
2018,04,24,00,51,8.50
2018,04,24,00,52,8.50
2018,04,24,00,53,8.50
2018,04,24,00,54,8.50
2018,04,24,00,55,8.50
2018,04,24,00,56,8.50
2018,04,24,00,57,8.50
2018,04,24,00,58,8.50
2018,04,24,00,59,8.50
2018,04,24,01,00,8.50
2018,04,24,01,01,8.50
2018,04,24,01,02,8.50
2018,04,24,01,03,8.50
2018,04,24,01,04,8.50
2018,04,24,01,05,8.50
2018,04,24,01,06,8.50
2018,04,24,01,07,8.50
2018,04,24,01,08,8.50
2018,04,24,01,09,8.50
2018,04,24,01,10,8.50
2018,04,24,01,11,8.40
2018,04,24,01,12,8.40
2018,04,24,01,13,8.40
2018,04,24,01,14,8.40
2018,04,24,01,15,8.40
2018,04,24,01,16,8.40
2018,04,24,01,17,8.40
2018,04,24,01,18,8.40
2018,04,24,01,19,8.30
2018,04,24,01,20,8.30
2018,04,24,01,21,8.30
2018,04,24,01,22,8.30
2018,04,24,01,23,8.30
2018,04,24,01,24,8.30
2018,04,24,01,25,8.40
2018,04,24,01,26,8.40
2018,04,24,01,27,8.40
2018,04,24,01,28,8.40
2018,04,24,01,29,8.40
2018,04,24,01,30,8.40
2018,04,24,01,31,8.40
2018,04,24,01,32,8.50
2018,04,24,01,33,8.50
2018,04,24,01,34,8.60
2018,04,24,01,35,8.60
2018,04,24,01,36,8.60
2018,04,24,01,37,8.70
2018,04,24,01,38,8.70
2018,04,24,01,39,8.70
2018,04,24,01,40,8.70
2018,04,24,01,41,8.70
2018,04,24,01,42,8.70
2018,04,24,01,43,8.60
2018,04,24,01,44,8.60
2018,04,24,01,45,8.60
2018,04,24,01,46,8.60
2018,04,24,01,47,8.50
2018,04,24,01,48,8.50
2018,04,24,01,49,8.50
2018,04,24,01,50,8.50
2018,04,24,01,51,8.40
2018,04,24,01,52,8.40
2018,04,24,01,53,8.40
2018,04,24,01,54,8.40
2018,04,24,01,55,8.40
2018,04,24,01,56,8.40
2018,04,24,01,57,8.30
2018,04,24,01,58,8.30
2018,04,24,01,59,8.30
2018,04,24,02,00,8.40
2018,04,24,02,01,8.40
2018,04,24,02,02,8.50
2018,04,24,02,03,8.60
2018,04,24,02,04,8.60
2018,04,24,02,05,8.70
2018,04,24,02,06,8.70
2018,04,24,02,07,8.70
2018,04,24,02,08,8.80
2018,04,24,02,09,8.80
2018,04,24,02,10,8.80
2018,04,24,02,11,8.80
2018,04,24,02,12,8.80
2018,04,24,02,13,8.80
2018,04,24,02,14,8.80
2018,04,24,02,15,8.80
2018,04,24,02,16,8.80
2018,04,24,02,17,8.80
2018,04,24,02,18,8.80
2018,04,24,02,19,8.80
2018,04,24,02,20,8.80
2018,04,24,02,21,8.80
2018,04,24,02,22,8.80
2018,04,24,02,23,8.80
2018,04,24,02,24,8.70
2018,04,24,02,25,8.70
2018,04,24,02,26,8.70
2018,04,24,02,27,8.70
2018,04,24,02,28,8.60
2018,04,24,02,29,8.60
2018,04,24,02,30,8.60
2018,04,24,02,31,8.50
2018,04,24,02,32,8.50
2018,04,24,02,33,8.50
2018,04,24,02,34,8.40
2018,04,24,02,35,8.40
2018,04,24,02,36,8.40
2018,04,24,02,37,8.30
2018,04,24,02,38,8.30
2018,04,24,02,39,8.30
2018,04,24,02,40,8.20
2018,04,24,02,41,8.20
2018,04,24,02,42,8.20
2018,04,24,02,43,8.20
2018,04,24,02,44,8.10
2018,04,24,02,45,8.10
2018,04,24,02,46,8.10
2018,04,24,02,47,8.10
2018,04,24,02,48,8.10
2018,04,24,02,49,8.00
2018,04,24,02,50,8.00
2018,04,24,02,51,8.00
2018,04,24,02,52,7.90
2018,04,24,02,53,7.90
2018,04,24,02,54,7.90
2018,04,24,02,55,7.90
2018,04,24,02,56,8.00
2018,04,24,02,57,8.00
2018,04,24,02,58,8.00
2018,04,24,02,59,8.00
2018,04,24,03,00,8.00
2018,04,24,03,01,8.10
2018,04,24,03,02,8.10
2018,04,24,03,03,8.00
2018,04,24,03,04,8.00
2018,04,24,03,05,8.00
2018,04,24,03,06,8.00
2018,04,24,03,07,7.90
2018,04,24,03,08,7.90
2018,04,24,03,09,7.90
2018,04,24,03,10,7.80
2018,04,24,03,11,7.80
2018,04,24,03,12,7.80
2018,04,24,03,13,7.70
2018,04,24,03,14,7.70
2018,04,24,03,15,7.70
2018,04,24,03,16,7.70
2018,04,24,03,17,7.60
2018,04,24,03,18,7.60
2018,04,24,03,19,7.60
2018,04,24,03,20,7.60
2018,04,24,03,21,7.60
2018,04,24,03,22,7.60
2018,04,24,03,23,7.60
2018,04,24,03,24,7.60
2018,04,24,03,25,7.50
2018,04,24,03,26,7.50
2018,04,24,03,27,7.50
2018,04,24,03,28,7.50
2018,04,24,03,29,7.40
2018,04,24,03,30,7.40
2018,04,24,03,31,7.40
2018,04,24,03,32,7.40
2018,04,24,03,33,7.40
2018,04,24,03,34,7.40
2018,04,24,03,35,7.40
2018,04,24,03,36,7.50
2018,04,24,03,37,7.50
2018,04,24,03,38,7.50
2018,04,24,03,39,7.60
2018,04,24,03,40,7.60
2018,04,24,03,41,7.70
2018,04,24,03,42,7.70
2018,04,24,03,43,7.70
2018,04,24,03,44,7.70
2018,04,24,03,45,7.80
2018,04,24,03,46,7.80
2018,04,24,03,47,7.80
2018,04,24,03,48,7.80
2018,04,24,03,49,7.80
2018,04,24,03,50,7.80
2018,04,24,03,51,7.80
2018,04,24,03,52,7.80
2018,04,24,03,53,7.90
2018,04,24,03,54,7.90
2018,04,24,03,55,8.00
2018,04,24,03,56,8.10
2018,04,24,03,57,8.20
2018,04,24,03,58,8.30
2018,04,24,03,59,8.40
2018,04,24,04,00,8.40
2018,04,24,04,01,8.50
2018,04,24,04,02,8.60
2018,04,24,04,03,8.60
2018,04,24,04,04,8.70
2018,04,24,04,05,8.80
2018,04,24,04,06,8.90
2018,04,24,04,07,8.90
2018,04,24,04,08,9.00
2018,04,24,04,09,9.00
2018,04,24,04,10,9.10
2018,04,24,04,11,9.10
2018,04,24,04,12,9.10
2018,04,24,04,13,9.10
2018,04,24,04,14,9.10
2018,04,24,04,15,9.10
2018,04,24,04,16,9.10
2018,04,24,04,17,9.10
2018,04,24,04,18,9.20
2018,04,24,04,19,9.20
2018,04,24,04,20,9.20
2018,04,24,04,21,9.30
2018,04,24,04,22,9.30
2018,04,24,04,23,9.30
2018,04,24,04,24,9.40
2018,04,24,04,25,9.40
2018,04,24,04,26,9.40
2018,04,24,04,27,9.40
2018,04,24,04,28,9.40
2018,04,24,04,29,9.40
2018,04,24,04,30,9.40
2018,04,24,04,31,9.50
2018,04,24,04,32,9.50
2018,04,24,04,33,9.50
2018,04,24,04,34,9.50
2018,04,24,04,35,9.40
2018,04,24,04,36,9.40
2018,04,24,04,37,9.40
2018,04,24,04,38,9.40
2018,04,24,04,39,9.40
2018,04,24,04,40,9.40
2018,04,24,04,41,9.40
2018,04,24,04,42,9.40
2018,04,24,04,43,9.40
2018,04,24,04,44,9.40
2018,04,24,04,45,9.30
2018,04,24,04,46,9.30
2018,04,24,04,47,9.30
2018,04,24,04,48,9.30
2018,04,24,04,49,9.30
2018,04,24,04,50,9.30
2018,04,24,04,51,9.30
2018,04,24,04,52,9.30
2018,04,24,04,53,9.30
2018,04,24,04,54,9.20
2018,04,24,04,55,9.20
2018,04,24,04,56,9.20
2018,04,24,04,57,9.20
2018,04,24,04,58,9.20
2018,04,24,04,59,9.20
2018,04,24,05,00,9.20
2018,04,24,05,01,9.20
2018,04,24,05,02,9.30
2018,04,24,05,03,9.30
2018,04,24,05,04,9.40
2018,04,24,05,05,9.40
2018,04,24,05,06,9.40
2018,04,24,05,07,9.50
2018,04,24,05,08,9.50
2018,04,24,05,09,9.50
2018,04,24,05,10,9.50
2018,04,24,05,11,9.50
2018,04,24,05,12,9.60
2018,04,24,05,13,9.60
2018,04,24,05,14,9.60
2018,04,24,05,15,9.70
2018,04,24,05,16,9.70
2018,04,24,05,17,9.70
2018,04,24,05,18,9.70
2018,04,24,05,19,9.70
2018,04,24,05,20,9.70
2018,04,24,05,21,9.70
2018,04,24,05,22,9.70
2018,04,24,05,23,9.70
2018,04,24,05,24,9.70
2018,04,24,05,25,9.70
2018,04,24,05,26,9.70
2018,04,24,05,27,9.80
2018,04,24,05,28,9.80
2018,04,24,05,29,9.80
2018,04,24,05,30,9.80
2018,04,24,05,31,9.90
2018,04,24,05,32,10.00
2018,04,24,05,33,10.00
2018,04,24,05,34,10.10
2018,04,24,05,35,10.20
2018,04,24,05,36,10.30
2018,04,24,05,37,10.30
2018,04,24,05,38,10.40
2018,04,24,05,39,10.40
2018,04,24,05,40,10.40
2018,04,24,05,41,10.40
2018,04,24,05,42,10.40
2018,04,24,05,43,10.40
2018,04,24,05,44,10.40
2018,04,24,05,45,10.40
2018,04,24,05,46,10.40
2018,04,24,05,47,10.40
2018,04,24,05,48,10.40
2018,04,24,05,49,10.40
2018,04,24,05,50,10.50
2018,04,24,05,51,10.50
2018,04,24,05,52,10.50
2018,04,24,05,53,10.50
2018,04,24,05,54,10.40
2018,04,24,05,55,10.40
2018,04,24,05,56,10.40
2018,04,24,05,57,10.40
2018,04,24,05,58,10.40
2018,04,24,05,59,10.40
2018,04,24,06,00,10.40
2018,04,24,06,01,10.40
2018,04,24,06,02,10.40
2018,04,24,06,03,10.40
2018,04,24,06,04,10.30
2018,04,24,06,05,10.30
2018,04,24,06,06,10.30
2018,04,24,06,07,10.30
2018,04,24,06,08,10.30
2018,04,24,06,09,10.30
2018,04,24,06,10,10.30
2018,04,24,06,11,10.30
2018,04,24,06,12,10.30
2018,04,24,06,13,10.30
2018,04,24,06,14,10.40
2018,04,24,06,15,10.40
2018,04,24,06,16,10.40
2018,04,24,06,17,10.40
2018,04,24,06,18,10.40
2018,04,24,06,19,10.50
2018,04,24,06,20,10.50
2018,04,24,06,21,10.50
2018,04,24,06,22,10.50
2018,04,24,06,23,10.50
2018,04,24,06,24,10.60
2018,04,24,06,25,10.60
2018,04,24,06,26,10.60
2018,04,24,06,27,10.60
2018,04,24,06,28,10.60
2018,04,24,06,29,10.60
2018,04,24,06,30,10.60
2018,04,24,06,31,10.50
2018,04,24,06,32,10.50
2018,04,24,06,33,10.50
2018,04,24,06,34,10.40
2018,04,24,06,35,10.40
2018,04,24,06,36,10.40
2018,04,24,06,37,10.50
2018,04,24,06,38,10.50
2018,04,24,06,39,10.50
2018,04,24,06,40,10.50
2018,04,24,06,41,10.50
2018,04,24,06,42,10.60
2018,04,24,06,43,10.60
2018,04,24,06,44,10.60
2018,04,24,06,45,10.60
2018,04,24,06,46,10.60
2018,04,24,06,47,10.60
2018,04,24,06,48,10.60
2018,04,24,06,49,10.60
2018,04,24,06,50,10.60
2018,04,24,06,51,10.70
2018,04,24,06,52,10.70
2018,04,24,06,53,10.70
2018,04,24,06,54,10.70
2018,04,24,06,55,10.70
2018,04,24,06,56,10.80
2018,04,24,06,57,10.80
2018,04,24,06,58,10.80
2018,04,24,06,59,10.80
2018,04,24,07,00,10.80
2018,04,24,07,01,10.80
2018,04,24,07,02,10.80
2018,04,24,07,03,10.80
2018,04,24,07,04,10.80
2018,04,24,07,05,10.80
2018,04,24,07,06,10.80
2018,04,24,07,07,10.80
2018,04,24,07,08,10.80
2018,04,24,07,09,10.80
2018,04,24,07,10,10.80
2018,04,24,07,11,10.90
2018,04,24,07,12,10.90
2018,04,24,07,13,10.90
2018,04,24,07,14,11.00
2018,04,24,07,15,11.00
2018,04,24,07,16,11.00
2018,04,24,07,17,11.10
2018,04,24,07,18,11.10
2018,04,24,07,19,11.10
2018,04,24,07,20,11.20
2018,04,24,07,21,11.20
2018,04,24,07,22,11.20
2018,04,24,07,23,11.30
2018,04,24,07,24,11.30
2018,04,24,07,25,11.30
2018,04,24,07,26,11.40
2018,04,24,07,27,11.40
2018,04,24,07,28,11.50
2018,04,24,07,29,11.60
2018,04,24,07,30,11.60
2018,04,24,07,31,11.60
2018,04,24,07,32,11.70
2018,04,24,07,33,11.70
2018,04,24,07,34,11.70
2018,04,24,07,35,11.80
2018,04,24,07,36,11.80
2018,04,24,07,37,11.80
2018,04,24,07,38,11.90
2018,04,24,07,39,11.90
2018,04,24,07,40,11.90
2018,04,24,07,41,11.90
2018,04,24,07,42,12.00
2018,04,24,07,43,12.00
2018,04,24,07,44,12.10
2018,04,24,07,45,12.10
2018,04,24,07,46,12.20
2018,04,24,07,47,12.20
2018,04,24,07,48,12.30
2018,04,24,07,49,12.30
2018,04,24,07,50,12.40
2018,04,24,07,51,12.40
2018,04,24,07,52,12.50
2018,04,24,07,53,12.50
2018,04,24,07,54,12.60
2018,04,24,07,55,12.60
2018,04,24,07,56,12.70
2018,04,24,07,57,12.70
2018,04,24,07,58,12.80
2018,04,24,07,59,12.80
2018,04,24,08,00,12.80
2018,04,24,08,01,12.90
2018,04,24,08,02,12.90
2018,04,24,08,03,12.90
2018,04,24,08,04,13.00
2018,04,24,08,05,13.00
2018,04,24,08,06,13.10
2018,04,24,08,07,13.10
2018,04,24,08,08,13.10
2018,04,24,08,09,13.20
2018,04,24,08,10,13.20
2018,04,24,08,11,13.20
2018,04,24,08,12,13.20
2018,04,24,08,13,13.20
2018,04,24,08,14,13.30
2018,04,24,08,15,13.30
2018,04,24,08,16,13.30
2018,04,24,08,17,13.40
2018,04,24,08,18,13.40
2018,04,24,08,19,13.40
2018,04,24,08,20,13.50
2018,04,24,08,21,13.50
2018,04,24,08,22,13.60
2018,04,24,08,23,13.60
2018,04,24,08,24,13.60
2018,04,24,08,25,13.70
2018,04,24,08,26,13.80
2018,04,24,08,27,13.80
2018,04,24,08,28,13.80
2018,04,24,08,29,13.90
2018,04,24,08,30,13.90
2018,04,24,08,31,13.90
2018,04,24,08,32,14.00
2018,04,24,08,33,14.00
2018,04,24,08,34,14.10
2018,04,24,08,35,14.10
2018,04,24,08,36,14.10
2018,04,24,08,37,14.20
2018,04,24,08,38,14.20
2018,04,24,08,39,14.20
2018,04,24,08,40,14.20
2018,04,24,08,41,14.20
2018,04,24,08,42,14.30
2018,04,24,08,43,14.30
2018,04,24,08,44,14.30
2018,04,24,08,45,14.30
2018,04,24,08,46,14.30
2018,04,24,08,47,14.30
2018,04,24,08,48,14.30
2018,04,24,08,49,14.30
2018,04,24,08,50,14.30
2018,04,24,08,51,14.30
2018,04,24,08,52,14.30
2018,04,24,08,53,14.30
2018,04,24,08,54,14.40
2018,04,24,08,55,14.40
2018,04,24,08,56,14.40
2018,04,24,08,57,14.50
2018,04,24,08,58,14.50
2018,04,24,08,59,14.60
2018,04,24,09,00,14.60
2018,04,24,09,01,14.70
2018,04,24,09,02,14.70
2018,04,24,09,03,14.70
2018,04,24,09,04,14.80
2018,04,24,09,05,14.80
2018,04,24,09,06,14.80
2018,04,24,09,07,14.90
2018,04,24,09,08,14.90
2018,04,24,09,09,15.00
2018,04,24,09,10,15.00
2018,04,24,09,11,15.00
2018,04,24,09,12,15.00
2018,04,24,09,13,15.00
2018,04,24,09,14,15.00
2018,04,24,09,15,15.00
2018,04,24,09,16,15.10
2018,04,24,09,17,15.10
2018,04,24,09,18,15.20
2018,04,24,09,19,15.20
2018,04,24,09,20,15.30
2018,04,24,09,21,15.30
2018,04,24,09,22,15.30
2018,04,24,09,23,15.40
2018,04,24,09,24,15.40
2018,04,24,09,25,15.50
2018,04,24,09,26,15.50
2018,04,24,09,27,15.60
2018,04,24,09,28,15.60
2018,04,24,09,29,15.60
2018,04,24,09,30,15.60
2018,04,24,09,31,15.70
2018,04,24,09,32,15.70
2018,04,24,09,33,15.70
2018,04,24,09,34,15.70
2018,04,24,09,35,15.70
2018,04,24,09,36,15.70
2018,04,24,09,37,15.70
2018,04,24,09,38,15.70
2018,04,24,09,39,15.80
2018,04,24,09,40,15.80
2018,04,24,09,41,15.90
2018,04,24,09,42,15.90
2018,04,24,09,43,16.00
2018,04,24,09,44,16.10
2018,04,24,09,45,16.10
2018,04,24,09,46,16.20
2018,04,24,09,47,16.20
2018,04,24,09,48,16.30
2018,04,24,09,49,16.30
2018,04,24,09,50,16.30
2018,04,24,09,51,16.30
2018,04,24,09,52,16.30
2018,04,24,09,53,16.40
2018,04,24,09,54,16.40
2018,04,24,09,55,16.40
2018,04,24,09,56,16.40
2018,04,24,09,57,16.40
2018,04,24,09,58,16.40
2018,04,24,09,59,16.40
2018,04,24,10,00,16.40
2018,04,24,10,01,16.40
2018,04,24,10,02,16.40
2018,04,24,10,03,16.40
2018,04,24,10,04,16.40
2018,04,24,10,05,16.50
2018,04,24,10,06,16.50
2018,04,24,10,07,16.60
2018,04,24,10,08,16.60
2018,04,24,10,09,16.70
2018,04,24,10,10,16.70
2018,04,24,10,11,16.80
2018,04,24,10,12,16.90
2018,04,24,10,13,17.00
2018,04,24,10,14,17.00
2018,04,24,10,15,17.10
2018,04,24,10,16,17.10
2018,04,24,10,17,17.20
2018,04,24,10,18,17.20
2018,04,24,10,19,17.20
2018,04,24,10,20,17.20
2018,04,24,10,21,17.20
2018,04,24,10,22,17.20
2018,04,24,10,23,17.20
2018,04,24,10,24,17.20
2018,04,24,10,25,17.20
2018,04,24,10,26,17.30
2018,04,24,10,27,17.30
2018,04,24,10,28,17.30
2018,04,24,10,29,17.30
2018,04,24,10,30,17.30
2018,04,24,10,31,17.30
2018,04,24,10,32,17.30
2018,04,24,10,33,17.30
2018,04,24,10,34,17.30
2018,04,24,10,35,17.40
2018,04,24,10,36,17.40
2018,04,24,10,37,17.40
2018,04,24,10,38,17.30
2018,04,24,10,39,17.30
2018,04,24,10,40,17.30
2018,04,24,10,41,17.40
2018,04,24,10,42,17.40
2018,04,24,10,43,17.40
2018,04,24,10,44,17.50
2018,04,24,10,45,17.50
2018,04,24,10,46,17.60
2018,04,24,10,47,17.60
2018,04,24,10,48,17.60
2018,04,24,10,49,17.60
2018,04,24,10,50,17.60
2018,04,24,10,51,17.60
2018,04,24,10,52,17.60
2018,04,24,10,53,17.60
2018,04,24,10,54,17.70
2018,04,24,10,55,17.70
2018,04,24,10,56,17.80
2018,04,24,10,57,17.80
2018,04,24,10,58,17.90
2018,04,24,10,59,18.00
2018,04,24,11,00,18.10
2018,04,24,11,01,18.20
2018,04,24,11,02,18.20
2018,04,24,11,03,18.30
2018,04,24,11,04,18.30
2018,04,24,11,05,18.20
2018,04,24,11,06,18.20
2018,04,24,11,07,18.20
2018,04,24,11,08,18.20
2018,04,24,11,09,18.20
2018,04,24,11,10,18.30
2018,04,24,11,11,18.30
2018,04,24,11,12,18.40
2018,04,24,11,13,18.40
2018,04,24,11,14,18.50
2018,04,24,11,15,18.60
2018,04,24,11,16,18.60
2018,04,24,11,17,18.60
2018,04,24,11,18,18.60
2018,04,24,11,19,18.70
2018,04,24,11,20,18.70
2018,04,24,11,21,18.70
2018,04,24,11,22,18.70
2018,04,24,11,23,18.70
2018,04,24,11,24,18.80
2018,04,24,11,25,18.80
2018,04,24,11,26,18.80
2018,04,24,11,27,18.90
2018,04,24,11,28,18.90
2018,04,24,11,29,19.00
2018,04,24,11,30,19.00
2018,04,24,11,31,19.10
2018,04,24,11,32,19.10
2018,04,24,11,33,19.20
2018,04,24,11,34,19.20
2018,04,24,11,35,19.30
2018,04,24,11,36,19.40
2018,04,24,11,37,19.50
2018,04,24,11,38,19.50
2018,04,24,11,39,19.60
2018,04,24,11,40,19.50
2018,04,24,11,41,19.50
2018,04,24,11,42,19.60
2018,04,24,11,43,19.60
2018,04,24,11,44,19.60
2018,04,24,11,45,19.70
2018,04,24,11,46,19.70
2018,04,24,11,47,19.80
2018,04,24,11,48,19.90
2018,04,24,11,49,19.90
2018,04,24,11,50,20.00
2018,04,24,11,51,20.00
2018,04,24,11,52,20.10
2018,04,24,11,53,20.10
2018,04,24,11,54,20.10
2018,04,24,11,55,20.10
2018,04,24,11,56,20.20
2018,04,24,11,57,20.20
2018,04,24,11,58,20.30
2018,04,24,11,59,20.30
2018,04,24,12,00,20.20
2018,04,24,12,01,20.20
2018,04,24,12,02,20.20
2018,04,24,12,03,20.10
2018,04,24,12,04,20.10
2018,04,24,12,05,20.00
2018,04,24,12,06,20.00
2018,04,24,12,07,19.90
2018,04,24,12,08,19.80
2018,04,24,12,09,19.80
2018,04,24,12,10,19.80
2018,04,24,12,11,19.80
2018,04,24,12,12,19.80
2018,04,24,12,13,19.80
2018,04,24,12,14,19.90
2018,04,24,12,15,19.90
2018,04,24,12,16,19.90
2018,04,24,12,17,20.00
2018,04,24,12,18,20.00
2018,04,24,12,19,20.00
2018,04,24,12,20,19.90
2018,04,24,12,21,19.90
2018,04,24,12,22,19.90
2018,04,24,12,23,19.90
2018,04,24,12,24,20.00
2018,04,24,12,25,20.00
2018,04,24,12,26,20.10
2018,04,24,12,27,20.10
2018,04,24,12,28,20.10
2018,04,24,12,29,20.10
2018,04,24,12,30,20.10
2018,04,24,12,31,20.20
2018,04,24,12,32,20.20
2018,04,24,12,33,20.30
2018,04,24,12,34,20.30
2018,04,24,12,35,20.30
2018,04,24,12,36,20.30
2018,04,24,12,37,20.30
2018,04,24,12,38,20.30
2018,04,24,12,39,20.30
2018,04,24,12,40,20.20
2018,04,24,12,41,20.20
2018,04,24,12,42,20.20
2018,04,24,12,43,20.20
2018,04,24,12,44,20.20
2018,04,24,12,45,20.20
2018,04,24,12,46,20.20
2018,04,24,12,47,20.10
2018,04,24,12,48,20.10
2018,04,24,12,49,20.10
2018,04,24,12,50,20.10
2018,04,24,12,51,20.10
2018,04,24,12,52,20.10
2018,04,24,12,53,20.10
2018,04,24,12,54,20.10
2018,04,24,12,55,20.10
2018,04,24,12,56,20.10
2018,04,24,12,57,20.10
2018,04,24,12,58,20.10
2018,04,24,12,59,20.10
2018,04,24,13,00,20.10
2018,04,24,13,01,20.10
2018,04,24,13,02,20.20
2018,04,24,13,03,20.20
2018,04,24,13,04,20.20
2018,04,24,13,05,20.30
2018,04,24,13,06,20.30
2018,04,24,13,07,20.40
2018,04,24,13,08,20.40
2018,04,24,13,09,20.40
2018,04,24,13,10,20.40
2018,04,24,13,11,20.50
2018,04,24,13,12,20.50
2018,04,24,13,13,20.60
2018,04,24,13,14,20.60
2018,04,24,13,15,20.60
2018,04,24,13,16,20.60
2018,04,24,13,17,20.60
2018,04,24,13,18,20.60
2018,04,24,13,19,20.70
2018,04,24,13,20,20.70
2018,04,24,13,21,20.70
2018,04,24,13,22,20.70
2018,04,24,13,23,20.70
2018,04,24,13,24,20.70
2018,04,24,13,25,20.80
2018,04,24,13,26,20.80
2018,04,24,13,27,20.80
2018,04,24,13,28,20.90
2018,04,24,13,29,20.90
2018,04,24,13,30,21.00
2018,04,24,13,31,21.00
2018,04,24,13,32,21.10
2018,04,24,13,33,21.20
2018,04,24,13,34,21.30
2018,04,24,13,35,21.30
2018,04,24,13,36,21.30
2018,04,24,13,37,21.40
2018,04,24,13,38,21.40
2018,04,24,13,39,21.40
2018,04,24,13,40,21.40
2018,04,24,13,41,21.40
2018,04,24,13,42,21.40
2018,04,24,13,43,21.40
2018,04,24,13,44,21.50
2018,04,24,13,45,21.40
2018,04,24,13,46,21.50
2018,04,24,13,47,21.50
2018,04,24,13,48,21.50
2018,04,24,13,49,21.50
2018,04,24,13,50,21.50
2018,04,24,13,51,21.50
2018,04,24,13,52,21.50
2018,04,24,13,53,21.50
2018,04,24,13,54,21.50
2018,04,24,13,55,21.60
2018,04,24,13,56,21.60
2018,04,24,13,57,21.60
2018,04,24,13,58,21.60
2018,04,24,13,59,21.60
2018,04,24,14,00,21.60
2018,04,24,14,01,21.70
2018,04,24,14,02,21.80
2018,04,24,14,03,21.80
2018,04,24,14,04,21.80
2018,04,24,14,05,21.80
2018,04,24,14,06,21.70
2018,04,24,14,07,21.70
2018,04,24,14,08,21.70
2018,04,24,14,09,21.70
2018,04,24,14,10,21.60
2018,04,24,14,11,21.60
2018,04,24,14,12,21.60
2018,04,24,14,13,21.70
2018,04,24,14,14,21.70
2018,04,24,14,15,21.80
2018,04,24,14,16,21.80
2018,04,24,14,17,21.90
2018,04,24,14,18,21.90
2018,04,24,14,19,22.00
2018,04,24,14,20,22.00
2018,04,24,14,21,22.10
2018,04,24,14,22,22.10
2018,04,24,14,23,22.10
2018,04,24,14,24,22.10
2018,04,24,14,25,22.10
2018,04,24,14,26,22.00
2018,04,24,14,27,22.00
2018,04,24,14,28,22.00
2018,04,24,14,29,22.00
2018,04,24,14,30,22.00
2018,04,24,14,31,22.00
2018,04,24,14,32,22.10
2018,04,24,14,33,22.20
2018,04,24,14,34,22.30
2018,04,24,14,35,22.30
2018,04,24,14,36,22.40
2018,04,24,14,37,22.40
2018,04,24,14,38,22.50
2018,04,24,14,39,22.60
2018,04,24,14,40,22.60
2018,04,24,14,41,22.60
2018,04,24,14,42,22.60
2018,04,24,14,43,22.50
2018,04,24,14,44,22.60
2018,04,24,14,45,22.60
2018,04,24,14,46,22.50
2018,04,24,14,47,22.50
2018,04,24,14,48,22.40
2018,04,24,14,49,22.40
2018,04,24,14,50,22.30
2018,04,24,14,51,22.30
2018,04,24,14,52,22.30
2018,04,24,14,53,22.30
2018,04,24,14,54,22.30
2018,04,24,14,55,22.30
2018,04,24,14,56,22.30
2018,04,24,14,57,22.30
2018,04,24,14,58,22.30
2018,04,24,14,59,22.20
2018,04,24,15,00,22.20
2018,04,24,15,01,22.20
2018,04,24,15,02,22.10
2018,04,24,15,03,22.10
2018,04,24,15,04,22.20
2018,04,24,15,05,22.10
2018,04,24,15,06,22.10
2018,04,24,15,07,22.20
2018,04,24,15,08,22.20
2018,04,24,15,09,22.10
2018,04,24,15,10,22.10
2018,04,24,15,11,22.10
2018,04,24,15,12,22.10
2018,04,24,15,13,22.10
2018,04,24,15,14,22.10
2018,04,24,15,15,22.20
2018,04,24,15,16,22.20
2018,04,24,15,17,22.20
2018,04,24,15,18,22.20
2018,04,24,15,19,22.20
2018,04,24,15,20,22.10
2018,04,24,15,21,22.10
2018,04,24,15,22,22.10
2018,04,24,15,23,22.20
2018,04,24,15,24,22.20
2018,04,24,15,25,22.30
2018,04,24,15,26,22.30
2018,04,24,15,27,22.40
2018,04,24,15,28,22.50
2018,04,24,15,29,22.60
2018,04,24,15,30,22.60
2018,04,24,15,31,22.60
2018,04,24,15,32,22.60
2018,04,24,15,33,22.60
2018,04,24,15,34,22.60
2018,04,24,15,35,22.60
2018,04,24,15,36,22.70
2018,04,24,15,37,22.70
2018,04,24,15,38,22.70
2018,04,24,15,39,22.70
2018,04,24,15,40,22.70
2018,04,24,15,41,22.70
2018,04,24,15,42,22.60
2018,04,24,15,43,22.60
2018,04,24,15,44,22.60
2018,04,24,15,45,22.50
2018,04,24,15,46,22.50
2018,04,24,15,47,22.50
2018,04,24,15,48,22.40
2018,04,24,15,49,22.50
2018,04,24,15,50,22.50
2018,04,24,15,51,22.60
2018,04,24,15,52,22.60
2018,04,24,15,53,22.60
2018,04,24,15,54,22.60
2018,04,24,15,55,22.60
2018,04,24,15,56,22.70
2018,04,24,15,57,22.70
2018,04,24,15,58,22.70
2018,04,24,15,59,22.70
2018,04,24,16,00,22.70
2018,04,24,16,01,22.60
2018,04,24,16,02,22.60
2018,04,24,16,03,22.60
2018,04,24,16,04,22.60
2018,04,24,16,05,22.50
2018,04,24,16,06,22.60
2018,04,24,16,07,22.60
2018,04,24,16,08,22.70
2018,04,24,16,09,22.70
2018,04,24,16,10,22.60
2018,04,24,16,11,22.60
2018,04,24,16,12,22.60
2018,04,24,16,13,22.50
2018,04,24,16,14,22.50
2018,04,24,16,15,22.50
2018,04,24,16,16,22.40
2018,04,24,16,17,22.40
2018,04,24,16,18,22.30
2018,04,24,16,19,22.30
2018,04,24,16,20,22.30
2018,04,24,16,21,22.30
2018,04,24,16,22,22.30
2018,04,24,16,23,22.30
2018,04,24,16,24,22.30
2018,04,24,16,25,22.30
2018,04,24,16,26,22.30
2018,04,24,16,27,22.30
2018,04,24,16,28,22.30
2018,04,24,16,29,22.30
2018,04,24,16,30,22.30
2018,04,24,16,31,22.30
2018,04,24,16,32,22.30
2018,04,24,16,33,22.20
2018,04,24,16,34,22.20
2018,04,24,16,35,22.10
2018,04,24,16,36,22.10
2018,04,24,16,37,22.00
2018,04,24,16,38,22.00
2018,04,24,16,39,22.00
2018,04,24,16,40,21.90
2018,04,24,16,41,21.80
2018,04,24,16,42,21.80
2018,04,24,16,43,21.70
2018,04,24,16,44,21.70
2018,04,24,16,45,21.60
2018,04,24,16,46,21.50
2018,04,24,16,47,21.50
2018,04,24,16,48,21.40
2018,04,24,16,49,21.30
2018,04,24,16,50,21.00
2018,04,24,16,51,20.80
2018,04,24,16,52,20.70
2018,04,24,16,53,20.50
2018,04,24,16,54,20.40
2018,04,24,16,55,20.30
2018,04,24,16,56,20.30
2018,04,24,16,57,20.30
2018,04,24,16,58,20.30
2018,04,24,16,59,20.30
2018,04,24,17,00,20.40
2018,04,24,17,01,20.50
2018,04,24,17,02,20.60
2018,04,24,17,03,20.70
2018,04,24,17,04,20.70
2018,04,24,17,05,20.80
2018,04,24,17,06,20.80
2018,04,24,17,07,20.80
2018,04,24,17,08,20.80
2018,04,24,17,09,20.70
2018,04,24,17,10,20.60
2018,04,24,17,11,20.40
2018,04,24,17,12,20.30
2018,04,24,17,13,20.30
2018,04,24,17,14,20.20
2018,04,24,17,15,20.20
2018,04,24,17,16,20.10
2018,04,24,17,17,20.10
2018,04,24,17,18,20.00
2018,04,24,17,19,20.00
2018,04,24,17,20,20.00
2018,04,24,17,21,20.00
2018,04,24,17,22,19.90
2018,04,24,17,23,19.90
2018,04,24,17,24,19.90
2018,04,24,17,25,19.80
2018,04,24,17,26,19.80
2018,04,24,17,27,19.80
2018,04,24,17,28,19.80
2018,04,24,17,29,19.80
2018,04,24,17,30,19.80
2018,04,24,17,31,19.80
2018,04,24,17,32,19.80
2018,04,24,17,33,19.90